SCP
-0 -0 -0 -0 -0 -0 -0 0 0 0 0 0 0 0 0 0 0 0 -0 -0 -0 -0 0 0 0 0 0 0 0 0 0 -0
-0 -0 -0 -0 -0 -0 -0 0 0 0 0 0 0 0 0 0 0 0 -0 -0 -0 -0 0 0 0 0 0 0 0 0 0 0
-0 -0 -0 -0 -0 -0 -0 0 0 0 0 0 0 0 0 0 -0 -0 -0 -0 -0 -0 0 0 0 0 0 0 0 0 0 0
-0 -0 -0 -0 -0 -0 -0 0 0 0 0 0 0 -0 -0 -0 -0 0 -0 -0 -0 -0 -0 -0 0 0 0 0 0 0 0 0
-0 -0 -0 -0 -0 -0 -0 -0 -0 -0 -0 0 0 -0 -0 0 -0 0 -0 -0 0 -0 -0 -0 0 0 0 0 -0 0 0 0
-0 -0 -0 -0 -0 -0 -0 -0 -0 -0 -0 0 0 0 -0 0 0 0 0 0 -0 0 -0 -0 0 0 0 0 -0 0 0 0
-0 -0 -0 -0 -0 -0 -0 -0 -0 -0 -0 -0 -0 0 0 -0 0 0 0 0 0 0 0 0 -0 -0 0 0 0 0 0 0
-0 -0 -0 -0 -0 -0 -0 -0 -0 -0 -0 0 -0 0 0 0 0 0 0 0 0 0 0 0 0 0 0 0 -0 0 0 0
-0 -0 -0 -0 -0 -0 -0 -0 -0 -0 -0 0 0 -0 0 0 0 0 0 0 0 0 0 0 0 0 0 0 0 0 0 0
-0 -0 -0 -0 -0 -0 -0 -0 -0 -0 -0 -0 -0 0 0 0 0 0 0 0 0 0 0 0 0 0 0 0 0 0 0 -0
-0 -0 -0 -0 -0 -0 -0 0 -0 -0 -0 -0 -0 -0 0 -0 -0 -0 0 0 0 0 0 0 0 0 0 0 0 0 0 0
0 -0 -0 -0 -0 -0 -0 -0 -0 -0 -0 -0 -0 -0 -0 -0 0 0 0 0 0 0 0 0 0 0 0 0 0 -0 -0 -0
0 -0 -0 -0 -0 -0 -0 -0 -0 -0 -0 -0 -0 -0 -0 -0 0 0 0 0 0 0 0 0 0 0 0 0 0 0 0 -0
0 0 0 -0 -0 -0 -0 -0 -0 -0 -0 -0 -0 -0 -0 0 0 -0 0 -0 -0 -0 -0 -0 -0 -0 0 -0 0 0 -0 -0
0 0 -0 -0 -0 -0 -0 -0 -0 -0 -0 -0 -0 -0 0 0 0 -0 -0 -0 -0 -0 -0 0 0 0 0 -0 -0 -0 -0 -0
0 0 0 0 0 -0 -0 -0 -0 -0 -0 0 0 0 0 -0 -0 -0 -0 -0 -0 -0 -0 -0 0 0 -0 -0 -0 -0 0 0
0 0 0 0 0 0 -0 -0 -0 -0 -0 0 0 0 0 -0 -0 -0 -0 -0 -0 -0 -0 -0 0 0 0 0 -0 0 -0 -0
0 0 -0 0 0 0 0 0 0 0 0 0 0 0 0 0 -0 -0 -0 -0 -0 -0 -0 -0 0 0 0 0 0 0 0 0
0 0 -0 0 0 0 0 0 0 0 0 0 0 0 0 0 0 0 -0 -0 -0 -0 0 0 0 0 0 0 0 0 0 0
0 0 0 0 0 0 0 0 0 0 0 0 0 0 0 0 0 0 0 0 -0 0 0 0 0 0 0 0 0 0 0 0
Wind_Speed_500mb
45 50 57 53 50 46 38 31 28 24 19 15 10 4 2 3 7 11 16 18 19 17 17 14 13 15 17 18 19 21 23 22
50 53 54 51 50 45 38 34 30 24 19 16 11 4 4 5 14 16 17 21 22 22 24 23 20 21 20 23 25 27 26 27
53 58 56 54 51 46 38 36 32 27 21 18 12 9 9 16 20 21 23 25 25 26 27 26 21 22 23 26 28 28 29 31
51 57 58 57 54 50 42 40 36 30 24 20 15 14 18 24 24 23 25 25 26 27 26 22 20 23 22 17 16 15 22 32
61 66 67 61 57 52 46 44 39 33 28 23 22 18 23 28 25 23 21 22 23 23 22 19 17 16 15 10 9 15 25 34
59 65 68 61 56 52 45 45 42 36 32 28 30 24 25 28 25 21 19 20 20 17 13 13 15 15 13 9 6 24 32 34
63 66 67 62 60 56 51 47 46 41 37 34 38 31 29 30 26 21 18 19 19 16 10 12 16 21 18 12 19 28 35 39
61 64 67 63 61 60 57 52 52 48 41 37 42 35 33 29 24 20 18 20 22 22 19 20 22 26 28 24 28 32 33 43
60 66 73 69 65 64 62 57 57 52 44 40 41 38 34 30 27 22 18 23 24 27 28 31 31 30 32 29 26 25 38 47
64 68 73 72 67 66 66 63 54 53 48 44 40 42 39 35 30 28 23 23 25 29 30 32 30 29 28 29 30 34 50 53
63 72 76 77 71 67 68 62 59 57 53 49 44 42 42 38 37 32 30 24 25 29 32 32 33 31 30 30 31 38 35 36
66 67 80 84 77 67 59 62 62 61 58 52 50 45 47 44 39 33 32 30 29 31 32 33 34 34 35 34 33 34 35 35
69 80 89 89 84 72 68 63 67 66 61 56 55 51 47 46 44 39 37 33 28 30 34 34 36 36 34 35 36 37 36 35
67 79 78 87 87 81 73 68 68 69 67 62 60 58 53 49 48 43 41 37 31 25 20 27 34 32 32 33 35 34 33 33
64 81 85 89 90 88 77 72 73 72 70 70 65 61 59 55 51 49 46 42 39 35 31 26 28 26 38 37 37 36 34 34
57 66 83 82 89 84 77 74 75 74 70 68 69 69 65 61 57 52 44 43 46 45 42 38 34 37 36 36 43 44 45 47
45 59 75 77 78 79 76 78 79 78 79 73 70 68 68 65 59 56 50 43 41 39 46 45 44 43 48 48 48 51 55 58
49 65 78 80 79 77 73 75 79 81 79 75 71 67 68 68 67 61 54 53 50 45 48 49 51 54 57 63 65 63 64 63
36 50 67 83 82 78 76 76 77 82 82 82 78 73 69 68 70 70 65 59 57 56 55 52 52 52 57 61 67 71 72 70
27 40 50 59 75 78 74 75 75 82 82 82 83 84 79 73 73 71 70 66 64 61 58 59 56 55 58 57 61 64 68 70
Wind_Direction_500mb
170 174 175 179 176 174 174 171 172 172 176 179 187 181 134 68 150 132 133 146 150 151 149 147 137 124 113 106 103 117 116 120
172 174 179 182 177 176 175 175 176 177 179 174 182 138 121 115 148 134 130 138 137 137 136 137 130 123 113 101 99 103 110 111
177 177 182 182 178 178 176 177 178 176 175 168 163 133 117 132 134 130 132 130 130 133 138 139 132 116 112 106 101 93 108 114
178 182 185 183 181 180 177 178 179 178 176 169 156 129 124 134 128 130 132 129 131 130 136 140 140 137 126 117 95 101 114 121
183 186 187 186 185 182 180 179 179 181 180 172 161 144 133 132 128 129 130 131 134 137 137 145 153 152 143 133 108 131 135 131
186 188 189 188 186 183 181 181 180 184 183 175 164 150 138 140 132 123 126 139 142 142 142 152 158 157 149 126 114 133 138 139
193 190 189 186 187 183 183 182 183 187 189 181 174 163 146 141 133 123 121 136 146 130 123 150 156 156 135 121 131 133 136 142
190 188 189 187 186 184 186 186 187 189 192 187 180 177 173 161 147 136 126 136 143 131 117 118 138 136 129 123 124 134 146 139
190 188 189 186 185 185 188 190 191 187 190 194 190 185 178 174 166 153 136 142 145 142 131 126 121 117 123 132 133 121 142 149
194 189 189 187 188 188 190 195 189 188 189 194 194 189 184 179 174 169 156 153 148 151 153 142 139 133 134 129 128 136 128 131
200 188 188 190 191 193 194 193 189 188 189 195 196 194 192 188 183 180 176 167 168 157 159 161 157 151 146 143 140 140 149 148
202 193 188 190 192 195 198 191 188 189 189 196 198 198 196 196 195 194 197 188 180 180 170 167 169 168 167 165 162 159 159 162
202 199 194 193 190 194 198 194 190 191 192 198 201 201 199 200 203 205 204 203 198 191 191 187 181 176 174 172 169 166 166 169
205 204 202 197 195 196 200 196 195 194 193 197 201 204 203 203 206 205 209 207 204 200 195 204 203 199 189 184 184 183 184 185
207 207 203 201 200 198 200 200 199 199 198 197 199 204 206 205 204 204 202 203 209 211 208 201 203 203 203 200 199 197 198 201
214 206 203 205 203 201 202 204 203 204 204 205 200 201 208 210 211 209 205 204 204 208 209 216 210 206 206 209 212 213 215 214
211 200 203 204 203 202 203 205 205 205 206 207 206 206 209 212 214 216 215 213 212 213 215 211 217 215 211 214 218 223 226 227
210 206 205 205 206 206 206 207 206 208 210 211 208 208 209 211 215 220 221 222 223 219 224 220 220 219 222 221 222 222 227 229
217 225 215 210 209 209 208 209 207 208 211 214 211 213 213 213 215 217 222 225 228 230 233 232 234 230 233 233 234 233 233 236
227 220 218 218 216 214 211 211 209 210 211 215 215 216 217 216 218 220 222 226 230 233 234 238 238 236 238 239 243 245 244 244
Wind_Speed_850mb
45 50 57 53 50 46 38 31 28 24 19 15 10 4 2 3 7 11 16 18 19 17 17 14 13 15 17 18 19 21 23 22
50 53 54 51 50 45 38 34 30 24 19 16 11 4 4 5 14 16 17 21 22 22 24 23 20 21 20 23 25 27 26 27
53 58 56 54 51 46 38 36 32 27 21 18 12 9 9 16 20 21 23 25 25 26 27 26 21 22 23 26 28 28 29 31
51 57 58 57 54 50 42 40 36 30 24 20 15 14 18 24 24 23 25 25 26 27 26 22 20 23 22 17 16 15 22 32
61 66 67 61 57 52 46 44 39 33 28 23 22 18 23 28 25 23 21 22 23 23 22 19 17 16 15 10 9 15 25 34
59 65 68 61 56 52 45 45 42 36 32 28 30 24 25 28 25 21 19 20 20 17 13 13 15 15 13 9 6 24 32 34
63 66 67 62 60 56 51 47 46 41 37 34 38 31 29 30 26 21 18 19 19 16 10 12 16 21 18 12 19 28 35 39
61 64 67 63 61 60 57 52 52 48 41 37 42 35 33 29 24 20 18 20 22 22 19 20 22 26 28 24 28 32 33 43
60 66 73 69 65 64 62 57 57 52 44 40 41 38 34 30 27 22 18 23 24 27 28 31 31 30 32 29 26 25 38 47
64 68 73 72 67 66 66 63 54 53 48 44 40 42 39 35 30 28 23 23 25 29 30 32 30 29 28 29 30 34 50 53
63 72 76 77 71 67 68 62 59 57 53 49 44 42 42 38 37 32 30 24 25 29 32 32 33 31 30 30 31 38 35 36
66 67 80 84 77 67 59 62 62 61 58 52 50 45 47 44 39 33 32 30 29 31 32 33 34 34 35 34 33 34 35 35
69 80 89 89 84 72 68 63 67 66 61 56 55 51 47 46 44 39 37 33 28 30 34 34 36 36 34 35 36 37 36 35
67 79 78 87 87 81 73 68 68 69 67 62 60 58 53 49 48 43 41 37 31 25 20 27 34 32 32 33 35 34 33 33
64 81 85 89 90 88 77 72 73 72 70 70 65 61 59 55 51 49 46 42 39 35 31 26 28 26 38 37 37 36 34 34
57 66 83 82 89 84 77 74 75 74 70 68 69 69 65 61 57 52 44 43 46 45 42 38 34 37 36 36 43 44 45 47
45 59 75 77 78 79 76 78 79 78 79 73 70 68 68 65 59 56 50 43 41 39 46 45 44 43 48 48 48 51 55 58
49 65 78 80 79 77 73 75 79 81 79 75 71 67 68 68 67 61 54 53 50 45 48 49 51 54 57 63 65 63 64 63
36 50 67 83 82 78 76 76 77 82 82 82 78 73 69 68 70 70 65 59 57 56 55 52 52 52 57 61 67 71 72 70
27 40 50 59 75 78 74 75 75 82 82 82 83 84 79 73 73 71 70 66 64 61 58 59 56 55 58 57 61 64 68 70
Wind_Direction_850mb
170 174 175 179 176 174 174 171 172 172 176 179 187 181 134 68 150 132 133 146 150 151 149 147 137 124 113 106 103 117 116 120
172 174 179 182 177 176 175 175 176 177 179 174 182 138 121 115 148 134 130 138 137 137 136 137 130 123 113 101 99 103 110 111
177 177 182 182 178 178 176 177 178 176 175 168 163 133 117 132 134 130 132 130 130 133 138 139 132 116 112 106 101 93 108 114
178 182 185 183 181 180 177 178 179 178 176 169 156 129 124 134 128 130 132 129 131 130 136 140 140 137 126 117 95 101 114 121
183 186 187 186 185 182 180 179 179 181 180 172 161 144 133 132 128 129 130 131 134 137 137 145 153 152 143 133 108 131 135 131
186 188 189 188 186 183 181 181 180 184 183 175 164 150 138 140 132 123 126 139 142 142 142 152 158 157 149 126 114 133 138 139
193 190 189 186 187 183 183 182 183 187 189 181 174 163 146 141 133 123 121 136 146 130 123 150 156 156 135 121 131 133 136 142
190 188 189 187 186 184 186 186 187 189 192 187 180 177 173 161 147 136 126 136 143 131 117 118 138 136 129 123 124 134 146 139
190 188 189 186 185 185 188 190 191 187 190 194 190 185 178 174 166 153 136 142 145 142 131 126 121 117 123 132 133 121 142 149
194 189 189 187 188 188 190 195 189 188 189 194 194 189 184 179 174 169 156 153 148 151 153 142 139 133 134 129 128 136 128 131
200 188 188 190 191 193 194 193 189 188 189 195 196 194 192 188 183 180 176 167 168 157 159 161 157 151 146 143 140 140 149 148
202 193 188 190 192 195 198 191 188 189 189 196 198 198 196 196 195 194 197 188 180 180 170 167 169 168 167 165 162 159 159 162
202 199 194 193 190 194 198 194 190 191 192 198 201 201 199 200 203 205 204 203 198 191 191 187 181 176 174 172 169 166 166 169
205 204 202 197 195 196 200 196 195 194 193 197 201 204 203 203 206 205 209 207 204 200 195 204 203 199 189 184 184 183 184 185
207 207 203 201 200 198 200 200 199 199 198 197 199 204 206 205 204 204 202 203 209 211 208 201 203 203 203 200 199 197 198 201
214 206 203 205 203 201 202 204 203 204 204 205 200 201 208 210 211 209 205 204 204 208 209 216 210 206 206 209 212 213 215 214
211 200 203 204 203 202 203 205 205 205 206 207 206 206 209 212 214 216 215 213 212 213 215 211 217 215 211 214 218 223 226 227
210 206 205 205 206 206 206 207 206 208 210 211 208 208 209 211 215 220 221 222 223 219 224 220 220 219 222 221 222 222 227 229
217 225 215 210 209 209 208 209 207 208 211 214 211 213 213 213 215 217 222 225 228 230 233 232 234 230 233 233 234 233 233 236
227 220 218 218 216 214 211 211 209 210 211 215 215 216 217 216 218 220 222 226 230 233 234 238 238 236 238 239 243 245 244 244